| time (UTC) | temp F | wind direction | speed MPH | gust MPH | rain 1hr in | rain 24hr in | rain mn in | humidity % | barometer mb |
| 20260505052605 | 62 | 110 | 1.0 | 5.0 | 0.00 | 0.00 | 0.00 | 61 | 1010.1 |
| 20260505052105 | 62 | 160 | 1.0 | 3.0 | 0.00 | 0.00 | 0.00 | 61 | 1010.1 |
| 20260505051605 | 63 | 174 | 1.0 | 3.0 | 0.00 | 0.00 | 0.00 | 61 | 1010.1 |
| 20260505051105 | 62 | 173 | 1.0 | 7.0 | 0.00 | 0.00 | 0.00 | 61 | 1010.1 |
| 20260505050605 | 62 | 124 | 1.0 | 7.0 | 0.00 | 0.00 | 0.00 | 61 | 1010.0 |
| 20260505050104 | 62 | 109 | 1.0 | 3.0 | 0.00 | 0.00 | 0.00 | 61 | 1010.0 |
| 20260505041604 | 62 | 145 | 2.0 | 7.0 | 0.00 | 0.00 | 0.00 | 60 | 1010.1 |
| 20260505041105 | 62 | 123 | 1.0 | 5.0 | 0.00 | 0.00 | 0.00 | 60 | 1010.1 |
| 20260505040604 | 63 | 139 | 1.0 | 8.0 | 0.00 | 0.00 | 0.00 | 60 | 1010.2 |
| 20260505040105 | 63 | 127 | 1.0 | 6.0 | 0.00 | 0.00 | 0.00 | 60 | 1010.2 |
| 20260505035604 | 63 | 154 | 3.0 | 8.0 | 0.00 | 0.00 | 0.00 | 60 | 1010.1 |
| 20260505034604 | 62 | 141 | 2.0 | 5.0 | 0.00 | 0.00 | 0.00 | 61 | 1010.1 |
| 20260505033604 | 62 | 128 | 2.0 | 7.0 | 0.00 | 0.00 | 0.00 | 60 | 1010.1 |
| 20260505033105 | 63 | 134 | 1.0 | 6.0 | 0.00 | 0.00 | 0.00 | 60 | 1010.0 |
| 20260505032605 | 63 | 118 | 2.0 | 10.0 | 0.00 | 0.00 | 0.00 | 60 | 1010.1 |
| 20260505032105 | 62 | 120 | 2.0 | 8.0 | 0.00 | 0.00 | 0.00 | 60 | 1009.9 |
| 20260505031606 | 63 | 85 | 2.0 | 7.0 | 0.00 | 0.00 | 0.00 | 60 | 1010.0 |
| 20260505031105 | 63 | 123 | 1.0 | 5.0 | 0.00 | 0.00 | 0.00 | 60 | 1010.1 |
| 20260505030605 | 63 | 172 | 1.0 | 7.0 | 0.00 | 0.00 | 0.00 | 60 | 1010.2 |
| 20260505025605 | 63 | 94 | 1.0 | 5.0 | 0.00 | 0.00 | 0.00 | 59 | 1010.3 |
| 20260505025105 | 63 | 145 | 2.0 | 6.0 | 0.00 | 0.00 | 0.00 | 59 | 1010.4 |
| 20260505024605 | 63 | 138 | 1.0 | 6.0 | 0.00 | 0.00 | 0.00 | 59 | 1010.4 |
| 20260505024105 | 63 | 134 | 1.0 | 6.0 | 0.00 | 0.00 | 0.00 | 58 | 1010.4 |
| 20260505023605 | 63 | 134 | 2.0 | 7.0 | 0.00 | 0.00 | 0.00 | 57 | 1010.4 |
| 20260505023105 | 63 | 109 | 1.0 | 3.0 | 0.00 | 0.00 | 0.00 | 57 | 1010.4 |
| 20260505022604 | 63 | 142 | 1.0 | 7.0 | 0.00 | 0.00 | 0.00 | 56 | 1010.4 |
| 20260505022104 | 63 | 133 | 1.0 | 3.0 | 0.00 | 0.00 | 0.00 | 56 | 1010.4 |
| 20260505021105 | 63 | 126 | 3.0 | 7.0 | 0.00 | 0.00 | 0.00 | 54 | 1010.4 |
| 20260505020605 | 63 | 124 | 2.0 | 6.0 | 0.00 | 0.00 | 0.00 | 53 | 1010.4 |
| 20260505020105 | 63 | 132 | 2.0 | 7.0 | 0.00 | 0.00 | 0.00 | 53 | 1010.4 |
| 20260505015105 | 63 | 140 | 2.0 | 5.0 | 0.00 | 0.00 | 0.00 | 51 | 1010.4 |
| 20260505014604 | 63 | 116 | 1.0 | 3.0 | 0.00 | 0.00 | 0.00 | 51 | 1010.4 |
| 20260505013605 | 64 | 127 | 0.0 | 2.0 | 0.00 | 0.00 | 0.00 | 50 | 1010.4 |
| 20260505013105 | 64 | 123 | 1.0 | 3.0 | 0.00 | 0.00 | 0.00 | 49 | 1010.4 |
| 20260505012605 | 64 | 128 | 0.0 | 3.0 | 0.00 | 0.00 | 0.00 | 48 | 1010.3 |
| 20260505012105 | 64 | 121 | 0.0 | 3.0 | 0.00 | 0.00 | 0.00 | 48 | 1010.2 |
| 20260505011606 | 65 | 129 | 1.0 | 2.0 | 0.00 | 0.00 | 0.00 | 47 | 1010.2 |
| 20260505011105 | 65 | 121 | 0.0 | 2.0 | 0.00 | 0.00 | 0.00 | 47 | 1010.2 |
| 20260505010604 | 65 | 123 | 1.0 | 2.0 | 0.00 | 0.00 | 0.00 | 46 | 1010.1 |
| 20260505010105 | 65 | 79 | 1.0 | 3.0 | 0.00 | 0.00 | 0.00 | 46 | 1010.0 |
| 20260505005605 | 66 | 142 | 2.0 | 5.0 | 0.00 | 0.00 | 0.00 | 45 | 1010.0 |
| 20260505004105 | 66 | 132 | 1.0 | 3.0 | 0.00 | 0.00 | 0.00 | 44 | 1009.8 |
| 20260505003104 | 67 | 126 | 2.0 | 3.0 | 0.00 | 0.00 | 0.00 | 43 | 1009.7 |
| 20260505002606 | 67 | 128 | 1.0 | 3.0 | 0.00 | 0.00 | 0.00 | 43 | 1009.7 |
| 20260505001105 | 68 | 118 | 1.0 | 2.0 | 0.00 | 0.00 | 0.00 | 41 | 1009.6 |
| 20260505000605 | 68 | 115 | 1.0 | 2.0 | 0.00 | 0.00 | 0.00 | 41 | 1009.5 |
| 20260505000105 | 68 | 98 | 0.0 | 3.0 | 0.00 | 0.00 | 0.00 | 41 | 1009.5 |
| 20260504235605 | 69 | 120 | 1.0 | 3.0 | 0.00 | 0.00 | 0.00 | 40 | 1009.5 |
| 20260504235105 | 69 | 112 | 0.0 | 2.0 | 0.00 | 0.00 | 0.00 | 39 | 1009.5 |
| 20260504234604 | 69 | 91 | 0.0 | 2.0 | 0.00 | 0.00 | 0.00 | 38 | 1009.4 |
| 20260504234104 | 70 | 141 | 1.0 | 3.0 | 0.00 | 0.00 | 0.00 | 38 | 1009.4 |
| 20260504233105 | 70 | 120 | 0.0 | 3.0 | 0.00 | 0.00 | 0.00 | 38 | 1009.3 |
| 20260504232606 | 71 | 115 | 1.0 | 3.0 | 0.00 | 0.00 | 0.00 | 37 | 1009.3 |
| 20260504232104 | 71 | 155 | 1.0 | 5.0 | 0.00 | 0.00 | 0.00 | 37 | 1009.3 |
| 20260504231604 | 71 | 181 | 2.0 | 10.0 | 0.00 | 0.00 | 0.00 | 36 | 1009.3 |
| 20260504231104 | 71 | 136 | 2.0 | 8.0 | 0.00 | 0.00 | 0.00 | 36 | 1009.3 |
| 20260504230605 | 72 | 64 | 1.0 | 5.0 | 0.00 | 0.00 | 0.00 | 36 | 1009.3 |
| 20260504230104 | 72 | 133 | 1.0 | 9.0 | 0.00 | 0.00 | 0.00 | 35 | 1009.3 |
| 20260504225605 | 72 | 140 | 1.0 | 6.0 | 0.00 | 0.00 | 0.00 | 36 | 1009.3 |
| 20260504225105 | 72 | 207 | 1.0 | 2.0 | 0.00 | 0.00 | 0.00 | 35 | 1009.3 |
| 20260504224605 | 72 | 143 | 2.0 | 5.0 | 0.00 | 0.00 | 0.00 | 34 | 1009.3 |
| 20260504224105 | 72 | 193 | 1.0 | 3.0 | 0.00 | 0.00 | 0.00 | 34 | 1009.2 |
| 20260504223605 | 73 | 151 | 2.0 | 13.0 | 0.00 | 0.00 | 0.00 | 34 | 1009.2 |
| 20260504223105 | 73 | 124 | 3.0 | 8.0 | 0.00 | 0.00 | 0.00 | 33 | 1009.2 |
| 20260504222605 | 73 | 196 | 3.0 | 6.0 | 0.00 | 0.00 | 0.00 | 34 | 1009.3 |
| 20260504222105 | 73 | 168 | 2.0 | 5.0 | 0.00 | 0.00 | 0.00 | 33 | 1009.3 |
| 20260504221104 | 74 | 177 | 3.0 | 9.0 | 0.00 | 0.00 | 0.00 | 32 | 1009.3 |
| 20260504220604 | 74 | 70 | 2.0 | 7.0 | 0.00 | 0.00 | 0.00 | 32 | 1009.4 |
| 20260504220105 | 75 | 187 | 2.0 | 8.0 | 0.00 | 0.00 | 0.00 | 32 | 1009.4 |
| 20260504215605 | 75 | 147 | 3.0 | 9.0 | 0.00 | 0.00 | 0.00 | 31 | 1009.4 |
| 20260504215105 | 75 | 166 | 2.0 | 3.0 | 0.00 | 0.00 | 0.00 | 31 | 1009.3 |
| 20260504214605 | 74 | 103 | 2.0 | 8.0 | 0.00 | 0.00 | 0.00 | 32 | 1009.4 |
| 20260504214105 | 74 | 184 | 5.0 | 10.0 | 0.00 | 0.00 | 0.00 | 31 | 1009.4 |
| 20260504213604 | 75 | 170 | 4.0 | 7.0 | 0.00 | 0.00 | 0.00 | 30 | 1009.4 |
| 20260504213104 | 75 | 196 | 2.0 | 7.0 | 0.00 | 0.00 | 0.00 | 32 | 1009.4 |
| 20260504212605 | 75 | 171 | 2.0 | 6.0 | 0.00 | 0.00 | 0.00 | 32 | 1009.4 |
| 20260504211605 | 75 | 232 | 4.0 | 9.0 | 0.00 | 0.00 | 0.00 | 31 | 1009.3 |
| 20260504211104 | 75 | 158 | 3.0 | 6.0 | 0.00 | 0.00 | 0.00 | 31 | 1009.3 |
| 20260504204605 | 75 | 186 | 4.0 | 10.0 | 0.00 | 0.00 | 0.00 | 31 | 1009.4 |
| 20260504204104 | 75 | 187 | 5.0 | 10.0 | 0.00 | 0.00 | 0.00 | 30 | 1009.5 |
| 20260504203604 | 75 | 311 | 3.0 | 6.0 | 0.00 | 0.00 | 0.00 | 31 | 1009.4 |
| 20260504203105 | 75 | 196 | 3.0 | 7.0 | 0.00 | 0.00 | 0.00 | 31 | 1009.4 |
| 20260504202605 | 74 | 168 | 3.0 | 12.0 | 0.00 | 0.00 | 0.00 | 31 | 1009.3 |
| 20260504202105 | 75 | 146 | 3.0 | 9.0 | 0.00 | 0.00 | 0.00 | 31 | 1009.4 |
| 20260504201605 | 75 | 137 | 3.0 | 12.0 | 0.00 | 0.00 | 0.00 | 32 | 1009.4 |
| 20260504201104 | 74 | 182 | 3.0 | 12.0 | 0.00 | 0.00 | 0.00 | 30 | 1009.5 |
| 20260504200604 | 74 | 179 | 3.0 | 12.0 | 0.00 | 0.00 | 0.00 | 31 | 1009.5 |
| 20260504200105 | 74 | 157 | 4.0 | 8.0 | 0.00 | 0.00 | 0.00 | 31 | 1009.5 |
| 20260504195605 | 74 | 172 | 4.0 | 12.0 | 0.00 | 0.00 | 0.00 | 30 | 1009.6 |
| 20260504195106 | 74 | 163 | 3.0 | 12.0 | 0.00 | 0.00 | 0.00 | 31 | 1009.7 |
| 20260504194605 | 74 | 203 | 3.0 | 9.0 | 0.00 | 0.00 | 0.00 | 30 | 1009.8 |
| 20260504194104 | 74 | 40 | 2.0 | 10.0 | 0.00 | 0.00 | 0.00 | 31 | 1009.8 |
| 20260504193605 | 75 | 150 | 3.0 | 10.0 | 0.00 | 0.00 | 0.00 | 31 | 1010.0 |
| 20260504193105 | 75 | 180 | 3.0 | 7.0 | 0.00 | 0.00 | 0.00 | 33 | 1010.0 |
| 20260504192605 | 74 | 160 | 2.0 | 6.0 | 0.00 | 0.00 | 0.00 | 31 | 1010.0 |
| 20260504192104 | 74 | 281 | 3.0 | 8.0 | 0.00 | 0.00 | 0.00 | 35 | 1010.1 |
| 20260504191604 | 74 | 96 | 3.0 | 12.0 | 0.00 | 0.00 | 0.00 | 30 | 1010.1 |
| 20260504191104 | 74 | 168 | 4.0 | 12.0 | 0.00 | 0.00 | 0.00 | 31 | 1010.2 |
| 20260504190604 | 74 | 169 | 2.0 | 9.0 | 0.00 | 0.00 | 0.00 | 33 | 1010.3 |
| 20260504190104 | 74 | 36 | 3.0 | 12.0 | 0.00 | 0.00 | 0.00 | 32 | 1010.3 |
| 20260504185605 | 73 | 193 | 4.0 | 10.0 | 0.00 | 0.00 | 0.00 | 31 | 1010.4 |
| 20260504185105 | 73 | 207 | 3.0 | 8.0 | 0.00 | 0.00 | 0.00 | 31 | 1010.4 |
| 20260504184604 | 74 | 169 | 3.0 | 10.0 | 0.00 | 0.00 | 0.00 | 31 | 1010.6 |
| 20260504184104 | 74 | 214 | 3.0 | 9.0 | 0.00 | 0.00 | 0.00 | 33 | 1010.7 |
| 20260504183604 | 73 | 172 | 2.0 | 5.0 | 0.00 | 0.00 | 0.00 | 34 | 1010.7 |
| 20260504183105 | 73 | 188 | 3.0 | 8.0 | 0.00 | 0.00 | 0.00 | 31 | 1010.8 |
| 20260504182604 | 73 | 153 | 3.0 | 9.0 | 0.00 | 0.00 | 0.00 | 33 | 1011.0 |
| 20260504182104 | 73 | 194 | 4.0 | 12.0 | 0.00 | 0.00 | 0.00 | 32 | 1011.1 |
| 20260504181604 | 73 | 180 | 3.0 | 12.0 | 0.00 | 0.00 | 0.00 | 33 | 1011.1 |
| 20260504181104 | 73 | 160 | 3.0 | 10.0 | 0.00 | 0.00 | 0.00 | 33 | 1011.2 |
| 20260504180105 | 72 | 181 | 3.0 | 10.0 | 0.00 | 0.00 | 0.00 | 34 | 1011.3 |
| 20260504175604 | 72 | 113 | 3.0 | 12.0 | 0.00 | 0.00 | 0.00 | 31 | 1011.4 |
| 20260504175105 | 72 | 150 | 2.0 | 10.0 | 0.00 | 0.00 | 0.00 | 33 | 1011.5 |
| 20260504174604 | 72 | 169 | 2.0 | 9.0 | 0.00 | 0.00 | 0.00 | 34 | 1011.6 |
| 20260504174104 | 72 | 181 | 5.0 | 8.0 | 0.00 | 0.00 | 0.00 | 32 | 1011.6 |
| 20260504173605 | 72 | 173 | 5.0 | 8.0 | 0.00 | 0.00 | 0.00 | 31 | 1011.6 |
| 20260504173105 | 72 | 180 | 5.0 | 8.0 | 0.00 | 0.00 | 0.00 | 33 | 1011.8 |
| 20260504172604 | 72 | 197 | 2.0 | 8.0 | 0.00 | 0.00 | 0.00 | 34 | 1011.7 |
| 20260504172105 | 72 | 186 | 2.0 | 7.0 | 0.00 | 0.00 | 0.00 | 33 | 1011.8 |
| 20260504171605 | 72 | 145 | 2.0 | 8.0 | 0.00 | 0.00 | 0.00 | 35 | 1011.9 |
| 20260504171104 | 72 | 162 | 2.0 | 10.0 | 0.00 | 0.00 | 0.00 | 35 | 1012.0 |
| 20260504170605 | 71 | 119 | 2.0 | 6.0 | 0.00 | 0.00 | 0.00 | 33 | 1011.9 |
| 20260504170105 | 71 | 182 | 3.0 | 9.0 | 0.00 | 0.00 | 0.00 | 33 | 1012.1 |
| 20260504160104 | 70 | 202 | 3.0 | 10.0 | 0.00 | 0.00 | 0.00 | 32 | 1012.9 |
| 20260504151104 | 67 | 6 | 2.0 | 9.0 | 0.00 | 0.00 | 0.00 | 42 | 1013.3 |
| 20260504150606 | 67 | 209 | 3.0 | 7.0 | 0.00 | 0.00 | 0.00 | 42 | 1013.3 |
| 20260504150105 | 67 | 191 | 3.0 | 8.0 | 0.00 | 0.00 | 0.00 | 43 | 1013.3 |
| 20260504140604 | 64 | 195 | 3.0 | 8.0 | 0.00 | 0.00 | 0.00 | 49 | 1013.5 |
| 20260504140105 | 64 | 184 | 3.0 | 6.0 | 0.00 | 0.00 | 0.00 | 51 | 1013.5 |
| 20260504130604 | 60 | 129 | 3.0 | 7.0 | 0.00 | 0.00 | 0.00 | 55 | 1013.9 |
| 20260504130105 | 60 | 170 | 3.0 | 6.0 | 0.00 | 0.00 | 0.00 | 56 | 1014.0 |
| 20260504120105 | 52 | 112 | 0.0 | 6.0 | 0.00 | 0.00 | 0.00 | 70 | 1014.5 |
| 20260504110604 | 47 | 146 | 0.0 | 2.0 | 0.00 | 0.00 | 0.00 | 73 | 1014.7 |
| 20260504110105 | 46 | 127 | 1.0 | 2.0 | 0.00 | 0.00 | 0.00 | 74 | 1014.8 |
| 20260504090104 | 49 | 126 | 0.0 | 1.0 | 0.00 | 0.00 | 0.00 | 65 | 1014.6 |
| 20260504081104 | 48 | 233 | 1.0 | 3.0 | 0.00 | 0.00 | 0.00 | 64 | 1014.5 |
| 20260504080605 | 47 | 141 | 1.0 | 2.0 | 0.00 | 0.00 | 0.00 | 64 | 1014.6 |
| 20260504080104 | 47 | 114 | 1.0 | 1.0 | 0.00 | 0.00 | 0.00 | 63 | 1014.6 |
| 20260504070104 | 44 | 127 | 0.0 | 1.0 | 0.00 | 0.00 | 0.00 | 65 | 1014.3 |
| 20260504060104 | 45 | 111 | 0.0 | 0.0 | 0.00 | 0.00 | 0.00 | 62 | 1014.3 |